Flag for Syria Weather past 2 weeks in Aleppo, Syria

Now
69 °F

Sunny.


Feels Like: 69 °F
Forecast: 56 / 89 °F
Wind: 3 mph from North

Location: Iskenderun


UV Index: 7 (High)

Visibility: 9 mi


Pressure: 30.06 "Hg

Humidity: 71%

Dew point: 59 °F

Location of AleppoLocation

Historic Weather in Aleppo

°F

Aleppo temperature yesterday

Maximum temperature yesterday: 71 °F (at 2:00 PM)
Minimum temperature yesterday: 64 °F (at 1:00 AM)
Average temperature yesterday: 67 °F

Past Weeks' High & Low Weather Summary

 TemperatureHumidityPressure
High82 °F (Apr 17, 2:00 PM)80% (Apr 18, 3:00 AM)30.17 "Hg (Apr 18, 3:00 AM)
Low61 °F (Apr 11, 7:00 AM)27% (Apr 17, 12:00 PM)29.75 "Hg (Apr 17, 4:00 PM)
Average67 °F63%29.97 "Hg
* Reported Apr 8 10:00 AM — Apr 23 10:00 AM, Aleppo, Weather by CustomWeather, © 2014

Note: Actual official high and low records may vary slightly from our data, if they occured in-between our weather recording intervals... More about our weather records

Advertising

Historic Weather Conditions — Data for Previous 24 hours

 ConditionsComfort  
Time TempWeatherWind HumidityBarometerVisibility
10:00 AM
Apr 23
69 °FSunny.5 mph68%30.06 "Hg4 mi
9:00 AM67 °FFog.5 mph71%30.07 "Hg4 mi
8:00 AM67 °FPassing clouds.No wind70%30.10 "Hg9 mi
7:00 AM65 °FScattered clouds.No wind74%30.07 "Hg9 mi
6:00 AM65 °FPartly sunny.No wind74%30.07 "Hg9 mi
5:00 AM64 °FClear.No wind74%30.07 "Hg9 mi
4:00 AM64 °FClear.No wind74%30.06 "Hg9 mi
3:00 AM64 °FClear.No wind74%30.08 "Hg9 mi
2:00 AM64 °FClear.No wind76%30.07 "Hg9 mi
1:00 AM65 °FClear.No wind75%30.07 "Hg9 mi
12:00 AM66 °FPassing clouds.No wind75%30.09 "Hg9 mi
11:00 PM
Apr 22
66 °FPassing clouds.1 mph75%30.09 "Hg9 mi
10:00 PM67 °FClear.3 mph74%30.08 "Hg9 mi
9:00 PM67 °FClear.1 mph73%30.06 "Hg9 mi
8:00 PM67 °FPassing clouds.2 mph72%30.03 "Hg12 mi
7:00 PM68 °FPassing clouds.5 mph71%30.02 "Hg9 mi
6:00 PM69 °FPassing clouds.7 mph70%30.03 "Hg12 mi
5:00 PM69 °FPassing clouds.12 mph70%30.02 "Hg9 mi
4:00 PM70 °FPassing clouds.9 mph67%30.02 "Hg9 mi
3:00 PM70 °FPassing clouds.13 mph68%30.03 "Hg9 mi
2:00 PM71 °FScattered clouds.8 mph66%30.03 "Hg12 mi
1:00 PM71 °FScattered clouds.6 mph64%30.04 "Hg9 mi
12:00 PM71 °FScattered clouds.7 mph63%30.05 "Hg9 mi
Weather by CustomWeather, © 2014

See weather overview